[[{"header":{"parameterUnit":"m.s-1","parameterCategory":1,"la1":30.2991,"la2":30.254,"lo1":-89.0895,"lo2":-89.0444,"dy":0.0017,"dx":0.0017,"nx":28,"ny":28,"refTime":"2024-02-22T09:00:00:Z","depth":0,"parameterNumber":2,"parameterNumberName":"U-component_of_WINDS"},"data":[0,0,0,0,0,0,0,0,0,0,0,0,0,0,0,0,0,0,0,0,0,0,0,0,0,0,0,0,0,0,0,0,0,0,0,0,0,0,0,0,0,0,0,0,0,0,0,0,0,0,0,0,0,0,0,0,0,0,3.7017,3.7018,0,3.7078,3.7078,3.7079,3.7057,3.7055,3.7054,3.7052,3.7116,3.7118,3.7121,0,0,0,0,0,0,0,0,0,0,0,0,0,3.6887,3.689,3.7017,3.7018,3.7019,3.7077,3.7078,3.7079,3.7057,3.7055,3.7053,3.7052,3.7115,3.7118,3.7122,0,0,0,0,0,0,0,0,0,0,0,0,0,3.6945,3.6891,3.7017,3.7015,3.7015,3.7077,3.7078,3.7079,3.7057,3.7055,3.7053,3.7051,3.7113,3.7118,3.7122,3.7191,0,0,3.7136,3.7138,0,0,0,0,0,0,0,0,3.6942,3.695,3.7014,3.7015,3.7015,3.7057,3.7056,3.7117,3.7058,3.7041,3.7052,3.705,3.7098,3.7104,3.7119,3.7194,3.7196,3.7136,3.7139,3.7141,3.7142,0,0,0,0,0,0,0,3.6938,3.6947,3.7041,3.7015,3.7016,3.7012,3.7018,3.7067,3.708,3.7042,3.7041,3.7048,3.7098,3.7115,3.7121,3.7197,3.7136,3.714,3.7143,3.7144,3.7337,3.7339,0,0,0,0,0,0,3.6933,3.6944,3.7039,3.7043,3.6973,3.7016,3.7023,3.7046,3.708,3.7083,3.705,3.7047,3.7109,3.7116,3.7123,3.7209,3.7141,3.7145,3.7147,3.7334,3.7337,3.734,0,0,0,0,0,0,3.6931,3.6942,3.7037,3.6993,3.7005,3.702,3.7047,3.7048,3.7065,3.7086,3.7088,3.7065,3.7107,3.7117,3.7175,3.7211,3.7147,3.7151,3.7331,3.7335,3.7339,3.738,0,0,0,0,0,0,3.6927,3.6941,3.6966,3.6994,3.7007,3.7087,3.7049,3.7051,3.7073,3.707,3.71,3.7103,3.7106,3.7169,3.718,3.7216,3.7154,3.7328,3.7333,3.7337,3.7375,3.7384,3.7392,0,0,0,0,0,3.6922,3.6974,3.6967,3.6979,3.7039,3.7089,3.7097,3.7099,3.7076,3.7102,3.7116,3.7102,3.7205,3.7175,3.7187,3.7225,3.7326,3.7332,3.7337,3.7372,3.7383,3.7392,0,0,0,0,0,0,3.6949,3.6978,3.697,3.7032,3.7059,3.7085,3.7118,3.7109,3.7142,3.7138,3.714,3.7147,3.7208,3.7222,3.7188,3.7296,3.7262,3.7271,3.7285,3.7295,3.7304,3.73,3.7158,0,0,0,0,0,3.6963,3.7,3.7023,3.7076,3.709,3.7102,3.7123,3.7123,3.715,3.7161,3.7179,3.7206,3.7246,3.7271,3.7307,3.7377,3.7386,3.741,3.7418,3.7425,3.7433,3.7475,3.7488,3.7358,3.7358,3.7358,0,0,3.699,3.7011,3.7034,3.7082,3.7102,3.7143,3.7111,3.7154,3.7185,3.7168,3.7225,3.7239,3.7271,3.7337,3.7366,3.735,3.7471,3.7432,3.7437,3.7441,3.7482,3.7495,3.7506,3.7362,3.7361,3.736,0,0,3.7062,3.708,3.7128,3.7149,3.7181,3.7189,3.7201,3.723,3.7239,3.7296,3.7286,3.7323,3.7389,3.7413,3.7434,3.752,3.751,3.7532,3.7576,3.7618,3.7628,3.7638,3.7672,3.7684,3.7539,3.7539,3.7539,0,3.7093,3.7152,3.7153,3.7199,3.7223,3.721,3.726,3.7281,3.7323,3.7341,3.7322,3.7407,3.7427,3.7501,3.7522,3.7538,3.7554,3.7529,3.7627,3.7636,3.7644,3.7677,3.769,3.7542,3.7542,3.7541,3.7541,0,3.719,3.7233,3.7268,3.731,3.7337,3.7385,3.7396,3.7423,3.7422,3.7433,3.7495,3.7518,3.7562,3.7579,3.7577,3.7654,3.7643,3.7625,3.7592,3.7659,3.7691,3.7703,3.7546,3.7545,3.7544,3.7543,0,0,3.7279,3.7324,3.7337,3.7358,3.7394,3.7427,3.7476,3.7519,3.7545,3.7575,3.7618,3.7676,3.7662,3.7686,3.7687,3.7723,3.7795,3.7702,3.7703,3.7721,3.7886,3.7901,3.7915,3.7789,3.7791,3.7793,3.7885,0,3.7356,3.7441,3.7446,3.7525,3.7566,3.7556,3.76,3.7628,3.7641,3.7679,3.7693,3.7736,3.7711,3.7726,3.7762,3.7779,3.7829,3.7772,3.7832,3.7834,3.7826,3.7931,3.7946,3.8031,3.7897,3.7899,3.79,0,3.7456,3.7492,3.7575,3.7609,3.7627,3.7665,3.7708,3.7743,3.7776,3.7783,3.7812,3.781,3.7863,3.7827,3.7903,3.7864,3.7889,3.7902,3.7905,3.7912,3.7872,3.7944,3.8058,3.8072,3.7918,3.7917,3.7916,0,3.7517,3.7585,3.7645,3.7663,3.7703,3.7731,3.775,3.7781,3.7808,3.7845,3.7863,3.7906,3.793,3.7965,3.7975,3.7947,3.8052,3.8016,3.8062,3.8062,3.8085,3.8084,3.8208,3.8097,3.8097,3.8097,3.8096,0,3.7604,3.7656,3.7674,3.771,3.777,3.7776,3.7835,3.7852,3.788,3.7922,3.7916,3.7956,3.7966,3.8008,3.8017,3.8081,3.809,3.81,3.8102,3.8102,3.8101,3.8119,3.8115,3.81,3.8099,3.8099,3.8098,0,3.7682,3.7695,3.776,3.7794,3.7805,3.7847,3.7877,3.7914,3.7927,3.7981,3.7994,3.8015,3.8065,3.8079,3.8138,3.8144,3.8221,3.8216,3.821,3.821,3.8257,3.8254,3.8399,3.842,3.8293,3.8294,3.8295,0,3.7737,3.7778,3.7817,3.7845,3.7865,3.7909,3.7938,3.7946,3.7977,3.802,3.8053,3.8103,3.8143,3.8224,3.8246,3.8293,3.8291,3.8339,3.8298,3.8298,3.8296,3.8294,3.83,3.8347,3.8348,3.8349,3.835,0,3.7836,3.7842,3.7882,3.7927,3.7962,3.7997,3.8031,3.8055,3.8069,3.8104,3.8155,3.8187,3.825,3.83,3.8349,3.8369,3.8364,3.8363,3.8377,3.8378,3.8375,3.8381,3.8234,3.836,3.8359,3.8358,3.8358,3.8357,3.7907,3.7944,3.7979,3.8026,3.8053,3.8086,3.8124,3.8143,3.8186,3.8238,3.8241,3.8298,3.8335,3.8399,3.8423,3.847,3.8455,3.8474,3.848,3.8485,3.8491,3.8366,3.8478,3.8478,3.8477,3.8477,3.8477,0,3.8008,3.803,3.8074,3.8123,3.8161,3.8152,3.8191,3.8224,3.8274,3.8308,3.8349,3.8411,3.8462,3.8489,3.854,3.8572,3.8571,3.8586,3.8585,3.859,3.8499,3.8483,3.8586,3.8586,3.8586,3.8586,3.8586,3.8586,3.8065,3.8129,3.8139,3.8218,3.824,3.8297,3.832,3.8352,3.838,3.845,3.8492,3.8509,3.8542,3.8596,3.8643,3.865,3.8671,3.8687,3.8693,3.8607,3.8596,3.8586,3.8571,3.8691,3.8691,3.8782,3.8782,3.8783]},{"header":{"parameterUnit":"m.s-1","parameterCategory":1,"la1":30.2991,"la2":30.254,"lo1":-89.0895,"lo2":-89.0444,"dy":0.0017,"dx":0.0017,"nx":28,"ny":28,"refTime":"2024-02-22T09:00:00:Z","depth":0,"parameterNumber":3,"parameterNumberName":"V-component_of_WINDS"},"data":[0,0,0,0,0,0,0,0,0,0,0,0,0,0,0,0,0,0,0,0,0,0,0,0,0,0,0,0,0,0,0,0,0,0,0,0,0,0,0,0,0,0,0,0,0,0,0,0,0,0,0,0,0,0,0,0,0,0,-2.6003,-2.6001,0,-2.586,-2.5858,-2.5856,-2.5927,-2.5931,-2.5934,-2.5938,-2.5779,-2.5771,-2.5764,0,0,0,0,0,0,0,0,0,0,0,0,0,-2.6327,-2.6321,-2.6003,-2.6001,-2.5999,-2.586,-2.5858,-2.5856,-2.5926,-2.5931,-2.5935,-2.594,-2.5782,-2.5772,-2.5763,0,0,0,0,0,0,0,0,0,0,0,0,0,-2.6185,-2.6319,-2.6003,-2.6018,-2.6018,-2.586,-2.5858,-2.5856,-2.5925,-2.5931,-2.5937,-2.5942,-2.5785,-2.5773,-2.5762,-2.5578,0,0,-2.5726,-2.5721,0,0,0,0,0,0,0,0,-2.6193,-2.6173,-2.6018,-2.6017,-2.6016,-2.5917,-2.5914,-2.5762,-2.5924,-2.596,-2.5938,-2.5945,-2.582,-2.5806,-2.5766,-2.557,-2.5564,-2.5725,-2.5718,-2.5713,-2.571,0,0,0,0,0,0,0,-2.6203,-2.6179,-2.5946,-2.6015,-2.6014,-2.6028,-2.6014,-2.5886,-2.5859,-2.5957,-2.5962,-2.5945,-2.582,-2.5777,-2.5763,-2.5561,-2.5726,-2.5715,-2.5708,-2.5704,-2.5207,-2.5201,0,0,0,0,0,0,-2.6213,-2.6187,-2.5951,-2.5942,-2.6121,-2.6018,-2.6002,-2.5943,-2.5861,-2.5855,-2.594,-2.5949,-2.5794,-2.5776,-2.5757,-2.5536,-2.5714,-2.5703,-2.5696,-2.5213,-2.5206,-2.5199,0,0,0,0,0,0,-2.622,-2.6192,-2.5956,-2.6066,-2.6037,-2.6007,-2.5939,-2.5937,-2.5894,-2.5849,-2.5843,-2.5901,-2.5798,-2.5774,-2.5623,-2.5532,-2.5697,-2.5687,-2.5221,-2.5211,-2.5202,-2.5092,0,0,0,0,0,0,-2.6229,-2.6194,-2.6126,-2.6064,-2.6031,-2.5827,-2.5934,-2.593,-2.5876,-2.5885,-2.5811,-2.5804,-2.58,-2.564,-2.5611,-2.5519,-2.5678,-2.5229,-2.5216,-2.5205,-2.5104,-2.508,-2.506,0,0,0,0,0,-2.624,-2.6098,-2.6122,-2.6093,-2.5946,-2.5822,-2.5802,-2.5805,-2.5868,-2.5798,-2.5769,-2.5806,-2.5547,-2.5624,-2.5592,-2.5495,-2.5234,-2.522,-2.5206,-2.5114,-2.5085,-2.5061,0,0,0,0,0,0,-2.6144,-2.609,-2.6116,-2.595,-2.589,-2.5834,-2.5745,-2.5774,-2.5692,-2.5704,-2.5708,-2.569,-2.5534,-2.5499,-2.5586,-2.5312,-2.54,-2.5379,-2.534,-2.5313,-2.5291,-2.5301,-2.5668,0,0,0,0,0,-2.6105,-2.6012,-2.5968,-2.5825,-2.5795,-2.5775,-2.5721,-2.5729,-2.5665,-2.5639,-2.5599,-2.5533,-2.5437,-2.5373,-2.5282,-2.51,-2.5084,-2.5018,-2.4996,-2.4978,-2.4959,-2.486,-2.4829,-2.5153,-2.5153,-2.5153,0,0,-2.602,-2.5979,-2.5919,-2.5805,-2.576,-2.5661,-2.5753,-2.5644,-2.5569,-2.5621,-2.5478,-2.5446,-2.5372,-2.5205,-2.5129,-2.5172,-2.4867,-2.496,-2.4947,-2.4937,-2.4842,-2.4811,-2.4784,-2.5144,-2.5145,-2.5147,0,0,-2.5815,-2.5776,-2.5653,-2.5607,-2.5539,-2.5528,-2.5498,-2.5438,-2.542,-2.5277,-2.5314,-2.5224,-2.5058,-2.5005,-2.4955,-2.4733,-2.4763,-2.4703,-2.4587,-2.449,-2.4465,-2.4442,-2.4361,-2.4332,-2.4684,-2.4684,-2.4684,0,-2.5717,-2.5573,-2.5584,-2.5473,-2.5421,-2.5469,-2.5343,-2.5296,-2.52,-2.5161,-2.5212,-2.5006,-2.496,-2.4781,-2.4727,-2.4686,-2.465,-2.471,-2.4468,-2.4446,-2.4425,-2.4347,-2.4317,-2.4677,-2.4678,-2.4679,-2.4679,0,-2.5455,-2.5354,-2.5262,-2.5174,-2.5111,-2.4992,-2.4983,-2.4918,-2.4932,-2.4914,-2.4767,-2.4714,-2.4613,-2.4572,-2.4582,-2.4393,-2.4422,-2.447,-2.4557,-2.4387,-2.4314,-2.4284,-2.4667,-2.467,-2.4672,-2.4673,0,0,-2.5182,-2.5105,-2.507,-2.5031,-2.4961,-2.4881,-2.4764,-2.4671,-2.4614,-2.4546,-2.4446,-2.4307,-2.4352,-2.4296,-2.4301,-2.4216,-2.4042,-2.4275,-2.4273,-2.4232,-2.3829,-2.3792,-2.3758,-2.4063,-2.4058,-2.4053,-2.3835,0,-2.4971,-2.4771,-2.4779,-2.459,-2.4496,-2.4542,-2.444,-2.4384,-2.4364,-2.4279,-2.4256,-2.4157,-2.4225,-2.4191,-2.411,-2.408,-2.396,-2.4097,-2.3966,-2.3962,-2.3982,-2.372,-2.368,-2.3476,-2.3806,-2.3802,-2.3798,0,-2.4697,-2.4626,-2.4429,-2.4375,-2.4335,-2.4244,-2.4159,-2.4078,-2.4015,-2.4007,-2.3946,-2.3965,-2.3843,-2.3937,-2.3768,-2.386,-2.3808,-2.3785,-2.3778,-2.3763,-2.3868,-2.3696,-2.3411,-2.338,-2.3754,-2.3757,-2.3761,0,-2.4516,-2.437,-2.4234,-2.4199,-2.4132,-2.4067,-2.4035,-2.3978,-2.3922,-2.3846,-2.3809,-2.3719,-2.3668,-2.3596,-2.359,-2.3659,-2.3418,-2.3512,-2.3405,-2.3405,-2.335,-2.3353,-2.305,-2.332,-2.332,-2.3321,-2.3322,0,-2.4278,-2.4155,-2.4152,-2.4068,-2.3931,-2.3941,-2.3804,-2.3778,-2.3728,-2.3637,-2.367,-2.3583,-2.3581,-2.3491,-2.3485,-2.3345,-2.3322,-2.331,-2.3309,-2.3305,-2.3307,-2.3269,-2.3282,-2.3313,-2.3315,-2.3316,-2.3318,0,-2.4052,-2.4045,-2.3899,-2.385,-2.3834,-2.3735,-2.3691,-2.3609,-2.3595,-2.3479,-2.3453,-2.3428,-2.3324,-2.3312,-2.3189,-2.3185,-2.3016,-2.3031,-2.3038,-2.304,-2.2934,-2.2943,-2.2594,-2.2548,-2.285,-2.2847,-2.2844,0,-2.3899,-2.3807,-2.3749,-2.3693,-2.3659,-2.3567,-2.3511,-2.3516,-2.3456,-2.3379,-2.3305,-2.3206,-2.3127,-2.2959,-2.2927,-2.2834,-2.2846,-2.273,-2.2831,-2.2831,-2.2842,-2.2846,-2.2836,-2.2709,-2.2706,-2.2703,-2.2701,0,-2.3629,-2.3631,-2.3551,-2.3469,-2.3402,-2.3337,-2.3276,-2.3227,-2.3225,-2.3154,-2.3052,-2.299,-2.2868,-2.2768,-2.2677,-2.264,-2.2668,-2.267,-2.264,-2.2634,-2.2642,-2.2635,-2.2983,-2.2677,-2.2679,-2.2681,-2.2683,-2.2683,-2.3433,-2.3353,-2.3301,-2.321,-2.3166,-2.3109,-2.303,-2.3008,-2.2923,-2.2827,-2.2835,-2.272,-2.266,-2.2541,-2.2498,-2.2407,-2.2444,-2.2401,-2.239,-2.2379,-2.2368,-2.2659,-2.239,-2.2391,-2.2391,-2.2392,-2.2392,0,-2.3163,-2.3133,-2.305,-2.2966,-2.2894,-2.2933,-2.2868,-2.2804,-2.2704,-2.2647,-2.2571,-2.2452,-2.2355,-2.2318,-2.2223,-2.2157,-2.2167,-2.2132,-2.2135,-2.2126,-2.234,-2.2375,-2.2125,-2.2125,-2.2125,-2.2125,-2.2125,-2.2125,-2.3014,-2.2881,-2.2877,-2.2722,-2.2691,-2.2583,-2.2542,-2.2488,-2.2444,-2.2311,-2.2233,-2.2211,-2.2161,-2.2064,-2.1976,-2.1968,-2.193,-2.1888,-2.1884,-2.2084,-2.2111,-2.2137,-2.2169,-2.188,-2.188,-2.1678,-2.1676,-2.1675]}]]